Location: Goudex
(43.3760°N, 0.9543°E)
Time: 08:27:47
(UTC+00:00)

Radarsat Rocket - Pass Details

Date: 20 November 2019
Orbit: 933 x 1492 km, 100.6° (Epoch: 08 December)

Event Time Altitude Azimuth Distance (km) Brightness Sun altitude
Rises 06:03:37 0° 16° (NNE) 3,609 7.0 -9.5°
Reaches altitude 10° 06:06:01 10° 16° (NNE) 2,651 6.3 -9.1°
Maximum altitude 06:11:52 88° 288° (WNW) 952 4.0 -8.1°
Drops below altitude 10° 06:17:54 10° 199° (SSW) 2,743 6.4 -7.1°
Sets 06:20:26 0° 199° (SSW) 3,743 7.1 -6.6°
